(144129) = 2004 BA89

Discovered at Socorro on 2004-01-23 by LINEAR.

Orbit

Orbit type: Main Belt

Note: WebGL enabled browser required.

epoch2024-03-31.0
epoch JD2460400.5
perihelion date2022-11-30.62204
perihelion JD2459914.12204
argument of perihelion (°)166.94349
ascending node (°)240.16939
inclination (°)5.00710
eccentricity0.1930525
perihelion distance (AU)2.0034995
Tisserand w.r.t. Jupiter3.4
ΔV w.r.t. Earth (km/sec)9.0
semimajor axis (AU)2.4828127
mean anomaly (°)122.53546
mean daily motion (°/day)0.25193470
aphelion distance (AU)2.962
period (years)3.91
P-vector [x]0.67980833
P-vector [y]0.66478565
P-vector [z]0.30971063
Q-vector [x]-0.72947100
Q-vector [y]0.65652162
Q-vector [z]0.19196726
absolute magnitude16.48
phase slope0.15
uncertainty0
referenceMPEC 2024-D35
observations used892
oppositions18
arc length (days)8805
first opposition used2000
last opposition used2024
residual rms (arc-secs)0.65
perturbers coarse indicatorM-v
perturbers precise indicator003Ek
first observation date used2000-01-07.0
last observation date used2024-02-15.0
computer nameMPCLINUX
JD of orbit computation2456966.898868
perihelion JD uncertainty (days)8.1959E-05
argument of perihelion uncertainty (°)9.4680E-05
ascending node uncertainty (°)9.2885E-05
inclination uncertainty (°)3.8118E-06
eccentricity uncertainty 4.4009E-08
perihelion distance uncertainty (AU)1.1296E-07
Minimum Orbit Intersection Distances (in AU)
for orbit epoch: 2460400.5, reference: E2024-G51
Mercury1.6861
Venus1.28199
Earth1.01403
Mars0.51003
Jupiter2.42113
Saturn6.77317
Uranus15.6795
Neptune27.6573

Observations

909 total observations over interval: 2000 01 07.36965 – 2024 02 15.572299
These data are available for download (format description).

Date (UT) J2000 RA J2000 Dec Magn Location Ref
2000 01 07.36965 08 42 50.60 +10 37 14.5 18.8   704 – Lincoln Laboratory ETS, New Mexico MPS 108682
2000 01 07.38480 08 42 49.83 +10 37 14.7 20.1   704 – Lincoln Laboratory ETS, New Mexico MPS 108682
2000 01 07.40135 08 42 48.92 +10 37 14.9 19.5   704 – Lincoln Laboratory ETS, New Mexico MPS 108682
2000 01 07.41614 08 42 48.15 +10 37 16.3 19.7   704 – Lincoln Laboratory ETS, New Mexico MPS 108682
2000 01 07.43093 08 42 47.39 +10 37 16.6 19.4   704 – Lincoln Laboratory ETS, New Mexico MPS 108682
2000 02 02.25433 08 17 14.70 +11 33 24.8 18.9   704 – Lincoln Laboratory ETS, New Mexico MPS 108682
2000 02 02.26873 08 17 13.84 +11 33 26.4 18.9   704 – Lincoln Laboratory ETS, New Mexico MPS 108682
2000 02 02.28325 08 17 12.97 +11 33 29.7 19.1   704 – Lincoln Laboratory ETS, New Mexico MPS 108682
2000 02 02.29758 08 17 12.09 +11 33 31.8 19.0   704 – Lincoln Laboratory ETS, New Mexico MPS 108682
2000 02 02.31230 08 17 11.14 +11 33 35.2 18.8   704 – Lincoln Laboratory ETS, New Mexico MPS 108682
2002 07 21.34655 21 21 01.23 -07 17 00.2 19.7   644 – Palomar Mountain/NEAT MPS 108682
2002 07 21.36740 21 21 00.27 -07 17 01.5 20.2   644 – Palomar Mountain/NEAT MPS 108682
2002 07 21.39408 21 20 59.03 -07 17 03.3 19.9   644 – Palomar Mountain/NEAT MPS 108682
2002 08 26.25638 20 49 08.65 -09 07 49.2 19.6   644 – Palomar Mountain/NEAT MPS 108682
2002 08 26.28216 20 49 07.38 -09 07 55.5 19.7   644 – Palomar Mountain/NEAT MPS 108682
2002 08 26.31219 20 49 05.89 -09 08 03.4 19.4   644 – Palomar Mountain/NEAT MPS 108682
2004 01 23.39725 09 24 30.59 +06 49 10.1 19.8   704 – Lincoln Laboratory ETS, New Mexico MPS 97972
2004 01 23.41020 09 24 29.90 +06 49 11.6 20.3   704 – Lincoln Laboratory ETS, New Mexico MPS 97972
2004 01 23.42320 09 24 29.10 +06 49 14.5 19.7   704 – Lincoln Laboratory ETS, New Mexico MPS 97972
2004 01 23.43602 09 24 28.43 +06 49 15.9 19.7   704 – Lincoln Laboratory ETS, New Mexico MPS 97972
2004 01 23.44880 09 24 27.67 +06 49 18.0 19.8   704 – Lincoln Laboratory ETS, New Mexico MPS 97972
2004 01 29.28923 09 18 54.60 +07 06 51.1 20.3   704 – Lincoln Laboratory ETS, New Mexico MPS 97972
2004 01 29.30195 09 18 53.74 +07 06 54.7 20.5   704 – Lincoln Laboratory ETS, New Mexico MPS 97972
2004 01 29.31443 09 18 53.07 +07 06 56.8 20.3   704 – Lincoln Laboratory ETS, New Mexico MPS 97972
2004 01 29.32689 09 18 52.36 +07 06 59.8 20.5   704 – Lincoln Laboratory ETS, New Mexico MPS 97972
2004 02 13.29418 09 04 07.11 +08 08 48.5 19.4 R 699 – Lowell Observatory-LONEOS MPS 108498
2004 02 13.30791 09 04 06.36 +08 08 53.0   699 – Lowell Observatory-LONEOS MPS 108498
2004 02 13.33917 09 04 04.51 +08 09 01.4   699 – Lowell Observatory-LONEOS MPS 108498
2004 02 13.35301 09 04 03.76 +08 09 05.5   699 – Lowell Observatory-LONEOS MPS 108498
2004 02 18.28305 08 59 35.49 +08 32 11.2 19.2   704 – Lincoln Laboratory ETS, New Mexico MPS 108498
2004 02 18.29673 08 59 34.79 +08 32 14.7 20.0   704 – Lincoln Laboratory ETS, New Mexico MPS 108498
2004 02 18.33528 08 59 32.67 +08 32 25.9 20.0   704 – Lincoln Laboratory ETS, New Mexico MPS 108498
2004 02 23.28461 08 55 29.75 +08 55 42.6 20.0 C 704 – Lincoln Laboratory ETS, New Mexico MPS 294234
2004 02 23.30974 08 55 28.62 +08 55 50.0 19.3 C 704 – Lincoln Laboratory ETS, New Mexico MPS 294234
2004 02 23.33433 08 55 27.33 +08 55 57.3 19.9 C 704 – Lincoln Laboratory ETS, New Mexico MPS 294234
2005 05 10.30586 15 09 54.62 -19 08 44.7 20.2 R G96 – Mt. Lemmon Survey MPS 134001
2005 05 10.31252 15 09 54.15 -19 08 41.8 19.1 R G96 – Mt. Lemmon Survey MPS 134001
2005 05 10.31919 15 09 53.94 -19 08 40.7 19.3 R G96 – Mt. Lemmon Survey MPS 134002
2005 05 10.32588 15 09 53.49 -19 08 38.5 19.3 R G96 – Mt. Lemmon Survey MPS 134002
2006 08 16.28721 21 53 36.89 -03 26 06.8 18.7 R 644 – Palomar Mountain/NEAT MPS 177027
2006 08 16.30762 21 53 35.76 -03 26 11.4 19.0 R 644 – Palomar Mountain/NEAT MPS 177027
2006 08 16.32801 21 53 34.62 -03 26 16.7 18.9 R 644 – Palomar Mountain/NEAT MPS 177027
2006 08 28.20608 21 42 45.43 -04 20 37.3 18.6 R 699 – Lowell Observatory-LONEOS MPS 177027
2006 08 28.22436 21 42 44.42 -04 20 43.6   699 – Lowell Observatory-LONEOS MPS 177027
2006 08 28.24260 21 42 43.45 -04 20 47.6   699 – Lowell Observatory-LONEOS MPS 177027
2006 08 28.26087 21 42 42.35 -04 20 54.5   699 – Lowell Observatory-LONEOS MPS 177027
2006 08 29.22446 21 41 51.25 -04 25 52.7 19.0 V 703 – Catalina Sky Survey MPS 177027
2006 08 29.22927 21 41 50.92 -04 25 54.1 18.9 V 703 – Catalina Sky Survey MPS 177027
2006 08 29.23412 21 41 50.67 -04 25 55.9 19.3 V 703 – Catalina Sky Survey MPS 177027
2006 08 29.23896 21 41 50.35 -04 25 57.1 19.2 V 703 – Catalina Sky Survey MPS 177027
2006 08 30.18911 21 41 00.44 -04 30 52.8 19.1   704 – Lincoln Laboratory ETS, New Mexico MPS 177027
2006 08 30.20026 21 40 59.93 -04 30 56.1 19.8   704 – Lincoln Laboratory ETS, New Mexico MPS 177027
2006 08 30.22279 21 40 58.60 -04 31 04.8 19.4   704 – Lincoln Laboratory ETS, New Mexico MPS 177027
2006 08 30.23407 21 40 58.06 -04 31 08.1 19.1   704 – Lincoln Laboratory ETS, New Mexico MPS 177027
2006 09 14.18631 21 29 46.57 -05 51 03.2 19.1 V 703 – Catalina Sky Survey MPS 178447
2006 09 14.19272 21 29 46.35 -05 51 05.3 19.1 V 703 – Catalina Sky Survey MPS 178447
2006 09 14.19917 21 29 46.06 -05 51 09.7 19.3 V 703 – Catalina Sky Survey MPS 178447
2006 09 14.20556 21 29 45.85 -05 51 10.3 19.1 V 703 – Catalina Sky Survey MPS 178447
2006 10 21.10715 21 28 38.64 -07 52 52.3 20.9 V 703 – Catalina Sky Survey MPS 184048
2006 10 21.11696 21 28 38.85 -07 52 54.6 19.7 V 703 – Catalina Sky Survey MPS 184048
2006 10 21.12671 21 28 39.00 -07 52 54.8 19.9 V 703 – Catalina Sky Survey MPS 184048
2006 10 21.13646 21 28 39.43 -07 52 53.8 19.7 V 703 – Catalina Sky Survey MPS 184048
2008 02 02.37435 10 07 19.15 +02 54 34.7 20.1   704 – Lincoln Laboratory ETS, New Mexico MPS 237246
2008 02 02.38702 10 07 18.48 +02 54 39.6 20.2   704 – Lincoln Laboratory ETS, New Mexico MPS 237246
2008 02 09.35142 10 00 55.28 +03 22 18.8 19.9   704 – Lincoln Laboratory ETS, New Mexico MPS 239018
2008 02 09.36373 10 00 54.59 +03 22 22.0 20.0   704 – Lincoln Laboratory ETS, New Mexico MPS 239018
2008 02 09.37599 10 00 53.85 +03 22 26.0 19.9   704 – Lincoln Laboratory ETS, New Mexico MPS 239018
2008 02 09.38853 10 00 53.14 +03 22 28.5 19.5   704 – Lincoln Laboratory ETS, New Mexico MPS 239018
2008 02 13.30460 09 57 07.66 +03 40 57.9 19.6 V G96 – Mt. Lemmon Survey MPS 239018
2008 02 13.31097 09 57 07.27 +03 40 59.7 19.7 V G96 – Mt. Lemmon Survey MPS 239018
2008 02 13.31738 09 57 06.91 +03 41 01.6 19.8 V G96 – Mt. Lemmon Survey MPS 239018
2008 02 13.32375 09 57 06.51 +03 41 03.3 19.7 V G96 – Mt. Lemmon Survey MPS 239018
2008 02 13.36097 09 57 04.28 +03 41 14.8 19.1 V G96 – Mt. Lemmon Survey MPS 239018
2008 02 13.37139 09 57 03.63 +03 41 17.7 19.0 V G96 – Mt. Lemmon Survey MPS 239018
2008 02 13.38179 09 57 03.02 +03 41 20.7 19.7 V G96 – Mt. Lemmon Survey MPS 239018
2008 02 13.39232 09 57 02.37 +03 41 24.3 19.4 V G96 – Mt. Lemmon Survey MPS 239018
2008 02 13.41803 09 57 00.86 +03 41 31.5 19.8 V G96 – Mt. Lemmon Survey MPS 239018
2008 02 13.42532 09 57 00.43 +03 41 33.7 19.7 V G96 – Mt. Lemmon Survey MPS 239018
2008 02 13.43266 09 57 00.00 +03 41 35.8 19.8 V G96 – Mt. Lemmon Survey MPS 239018
2008 02 13.44006 09 56 59.53 +03 41 38.0 19.7 V G96 – Mt. Lemmon Survey MPS 239018
2008 02 14.29129 09 56 10.42 +03 45 53.3 19.4 V G96 – Mt. Lemmon Survey MPS 239018
2008 02 14.29801 09 56 10.03 +03 45 55.4 19.7 V G96 – Mt. Lemmon Survey MPS 239018
2008 02 14.30473 09 56 09.63 +03 45 57.6 19.7 V G96 – Mt. Lemmon Survey MPS 239018
2008 02 14.31141 09 56 09.24 +03 45 59.4 19.6 V G96 – Mt. Lemmon Survey MPS 239018
2008 03 11.26308 09 34 14.66 +06 09 03.6 19.4 V G96 – Mt. Lemmon Survey MPS 243372
2008 03 11.26913 09 34 14.41 +06 09 05.7 19.9 V G96 – Mt. Lemmon Survey MPS 243372
2008 03 11.27520 09 34 14.19 +06 09 07.5 20.1 V G96 – Mt. Lemmon Survey MPS 243372
2008 03 12.22720 09 33 40.06 +06 14 06.2 19.3 V 703 – Catalina Sky Survey MPS 243930
2008 03 12.23388 09 33 39.88 +06 14 06.1 19.6 V 703 – Catalina Sky Survey MPS 243930
2008 03 12.24053 09 33 39.67 +06 14 09.0 19.8 V 703 – Catalina Sky Survey MPS 243930
